Regional Weather Roundup
Issued by NWS

Home | Current Version | Previous Version | Graphics & Text | Print | Product List | Glossary On
Versions: 1 2 3 4 5 6 7 8 9 10 11 12 13 14 15 16 17 18 19 20 21 22 23 24 25 26 27 28 29 30 31 32 33 34 35 36 37 38 39 40 41 42 43 44 45 46 47 48 49 50
000
ASUS43 KLOT 292102
RWRIL

ILLINOIS REGIONAL WEATHER ROUNDUP
NATIONAL WEATHER SERVICE CHICAGO/ROMEOVILLE IL
400 PM CDT SUN MAR 29 2015

NOTE: "FAIR" INDICATES FEW OR NO CLOUDS BELOW 12,000 FEET WITH NO
SIGNIFICANT WEATHER AND/OR OBSTRUCTIONS TO VISIBILITY.

* THESE STATIONS ARE NOT UNDER NWS QUALITY CONTROL. THEY ALSO MAY NOT
  REPORT WEATHER SUCH AS PRECIPITATION OR FOG.

ILZ001-002-007-009-015-016-024-292200-
NORTHWEST ILLINOIS

CITY           SKY/WX    TMP DP  RH WIND       PRES   REMARKS
MOLINE         CLOUDY    55  40  56 SW14      29.79F
STERLING*      CLOUDY    50  39  66 W13G22    29.79F
$$

ILZ003-004-008-010-011-017-018-292200-
NORTH CENTRAL ILLINOIS

CITY           SKY/WX    TMP DP  RH WIND       PRES   REMARKS
ROCKFORD       CLOUDY    44  36  73 SW20G28   29.77F
$$

ILZ005-006-012>014-019>023-292200-
NORTHEAST ILLINOIS

CITY           SKY/WX    TMP DP  RH WIND       PRES   REMARKS
CHICAGO-OHARE  PTSUNNY   41  30  65 SW20G29   29.80F
CHICAGO-MIDWAY PTSUNNY   43  31  62 SW25G31   29.82F
AURORA         PTSUNNY   46  33  60 SW21G31   29.82F
WAUKEGAN       CLOUDY    40  31  70 SW26G35   29.76F
DUPAGE AIRPORT CLOUDY    43  33  68 SW20G32   29.82F
WHEELING       CLOUDY    41  29  62 SW21G31   29.81F
NORTHERLY ISL    N/A     40  29  65 S18         N/A
$$

LMZ740>746-292200-
SOUTHERN LAKE MICHIGAN

STATION/POSITION SKY/WX   TEMP    WIND        PRES    VSBY  WAVE
                          AIR SEA DIR/SP/G                  HT/PER
                          (F)     (DEG/KT/KT) (MB)    (MI)  (FT/S)
HARRISON CRIB              37     200/ 36/ 47   N/A
BURNHAM HARBOR             37     170/ 15/ 25   N/A
CALUMET HARBOR             37     190/ 16/ 25 1009.6F
BURNS HARBOR               37     190/ 17/ 27 1011.5
MICHIGAN CITY              36     150/ 22/ 27   N/A
$$

ILZ025>027-034>036-040-047-049-050-058-095>099-292200-
WEST-CENTRAL ILLINOIS

CITY           SKY/WX    TMP DP  RH WIND       PRES   REMARKS
QUINCY         PTSUNNY   57  38  48 W16G22    29.92R
$$

ILZ028>032-037-038-041>044-048-051>054-059>061-292200-
CENTRAL ILLINOIS

CITY           SKY/WX    TMP DP  RH WIND       PRES   REMARKS
DECATUR        CLOUDY    47  37  68 SW13      29.94S
PEORIA         PTSUNNY   56  35  45 SW16      29.87F
SPRINGFIELD    CLOUDY    56  36  47 SW15G25   29.91F
TAYLORVILLE    NOT AVBL
$$

ILZ033-039-045-046-055>057-062-063-292200-
EAST-CENTRAL ILLINOIS

CITY           SKY/WX    TMP DP  RH WIND       PRES   REMARKS
CHAMPAIGN      LGT RAIN  45  37  73 S12       29.93R
MATTOON        LGT RAIN  49  33  54 S13       29.94S
$$

ILZ079-100>102-292200-
SOUTHWEST ILLINOIS

CITY           SKY/WX    TMP DP  RH WIND       PRES   REMARKS
BELLEVILLE     CLOUDY    58  40  49 SW8       29.94S
CAHOKIA*       LGT RAIN  60  38  43 W5        29.96R
$$

ILZ064>066-069>071-074>076-080>082-084>086-088>090-092>094-292200-
SOUTH-CENTRAL ILLINOIS

CITY           SKY/WX    TMP DP  RH WIND       PRES   REMARKS
CARBONDALE     CLOUDY    56  39  53 SW15G29   29.98S
MARION         PTSUNNY   57  37  47 S18G25    29.99F
MT. VERNON     PTSUNNY   55  37  50 S17G25    29.98F
$$

ILZ067-068-072-073-078-083-087-091-292200-
SOUTHEAST ILLINOIS

CITY           SKY/WX    TMP DP  RH WIND       PRES   REMARKS
LAWRENCEVILLE  PTSUNNY   55  29  36 S22G31    29.97F
$$

ABBREVIATIONS USED IN REMARKS
   TC - TEMPERATURE IN CELSIUS
  WCI - WIND CHILL INDEX
   HX - HEAT INDEX
  VSB - VISIBILITY
$$




USA.gov is the U.S. government's official web portal to all federal, state and local government web resources and services.